| time (UTC) | temp F | wind direction | speed knots | gust knots | rain 1hr in | rain 24hr in | rain mn in | humidity % | barometer mb |
| 20260505170534 | 81 | 185 | 0.9 | 6.1 | 0.00 | 0.00 | 0.00 | 50 | 1010.0 |
| 20260505170104 | 80 | 190 | 2.6 | 7.0 | 0.00 | 0.00 | 0.00 | 44 | 1010.0 |
| 20260505165534 | 80 | 192 | 2.6 | 7.0 | 0.00 | 0.00 | 0.00 | 44 | 1010.1 |
| 20260505165031 | 80 | 175 | 2.6 | 7.0 | 0.00 | 0.00 | 0.00 | 47 | 1010.1 |
| 20260505164544 | 80 | 213 | 3.5 | 7.0 | 0.00 | 0.00 | 0.00 | 44 | 1010.1 |
| 20260505164034 | 80 | 177 | 2.6 | 6.1 | 0.00 | 0.00 | 0.00 | 43 | 1010.1 |
| 20260505163531 | 80 | 212 | 0.9 | 6.1 | 0.00 | 0.00 | 0.00 | 46 | 1010.2 |
| 20260505163046 | 80 | 184 | 1.7 | 9.6 | 0.00 | 0.00 | 0.00 | 46 | 1010.2 |
| 20260505162533 | 80 | 198 | 1.7 | 9.6 | 0.00 | 0.00 | 0.00 | 44 | 1010.2 |
| 20260505162034 | 79 | 194 | 2.6 | 7.8 | 0.00 | 0.00 | 0.00 | 44 | 1010.3 |
| 20260505161547 | 79 | 217 | 3.5 | 7.8 | 0.00 | 0.00 | 0.00 | 43 | 1010.4 |
| 20260505161031 | 79 | 187 | 3.5 | 7.8 | 0.00 | 0.00 | 0.00 | 42 | 1010.3 |
| 20260505160534 | 79 | 159 | 0.9 | 7.8 | 0.00 | 0.00 | 0.00 | 46 | 1010.4 |
| 20260505153100 | 77 | 219 | 2.6 | 6.1 | 0.00 | 0.00 | 0.00 | 46 | 1010.9 |
| 20260505152533 | 76 | 166 | 2.6 | 7.0 | 0.00 | 0.00 | 0.00 | 50 | 1010.9 |
| 20260505152031 | 77 | 158 | 3.5 | 7.0 | 0.00 | 0.00 | 0.00 | 47 | 1010.9 |
| 20260505151559 | 76 | 157 | 1.7 | 6.1 | 0.00 | 0.00 | 0.00 | 53 | 1010.9 |
| 20260505151031 | 75 | 175 | 2.6 | 6.1 | 0.00 | 0.00 | 0.00 | 49 | 1011.0 |
| 20260505150537 | 75 | 173 | 1.7 | 7.8 | 0.00 | 0.00 | 0.00 | 50 | 1011.0 |
| 20260505140531 | 70 | 165 | 0.9 | 4.3 | 0.00 | 0.00 | 0.00 | 59 | 1011.5 |
| 20260505125032 | 65 | 173 | 0.0 | 3.5 | 0.00 | 0.00 | 0.00 | 70 | 1011.7 |
| 20260505124550 | 64 | 189 | 1.7 | 4.3 | 0.00 | 0.00 | 0.00 | 69 | 1011.6 |
| 20260505124032 | 64 | 199 | 0.9 | 4.3 | 0.00 | 0.00 | 0.00 | 70 | 1011.5 |
| 20260505123533 | 63 | 165 | 0.9 | 3.5 | 0.00 | 0.00 | 0.00 | 71 | 1011.5 |
| 20260505123054 | 63 | 171 | 0.9 | 3.5 | 0.00 | 0.00 | 0.00 | 72 | 1011.4 |
| 20260505122532 | 62 | 173 | 0.9 | 4.3 | 0.00 | 0.00 | 0.00 | 72 | 1011.4 |
| 20260505122034 | 62 | 169 | 1.7 | 4.3 | 0.00 | 0.00 | 0.00 | 73 | 1011.4 |
| 20260505121558 | 61 | 184 | 0.9 | 2.6 | 0.00 | 0.00 | 0.00 | 75 | 1011.4 |
| 20260505121032 | 61 | 0 | 0.0 | 2.6 | 0.00 | 0.00 | 0.00 | 75 | 1011.5 |
| 20260505120535 | 60 | 181 | 0.9 | 2.6 | 0.00 | 0.00 | 0.00 | 76 | 1011.6 |
| 20260505120048 | 59 | 0 | 0.9 | 2.6 | 0.00 | 0.00 | 0.00 | 78 | 1011.5 |
| 20260505115535 | 59 | 205 | 0.9 | 2.6 | 0.00 | 0.00 | 0.00 | 80 | 1011.4 |
| 20260505115031 | 58 | 168 | 0.9 | 1.7 | 0.00 | 0.00 | 0.00 | 82 | 1011.5 |
| 20260505114551 | 57 | 175 | 0.9 | 1.7 | 0.00 | 0.00 | 0.00 | 84 | 1011.5 |
| 20260505114032 | 56 | 0 | 0.0 | 0.9 | 0.00 | 0.00 | 0.00 | 86 | 1011.5 |
| 20260505113529 | 56 | 0 | 0.0 | 0.0 | 0.00 | 0.00 | 0.00 | 86 | 1011.4 |
| 20260505113043 | 55 | 0 | 0.0 | 0.0 | 0.00 | 0.00 | 0.00 | 87 | 1011.4 |
| 20260505112532 | 54 | 0 | 0.0 | 0.0 | 0.00 | 0.00 | 0.00 | 87 | 1011.3 |
| 20260505112032 | 54 | 0 | 0.0 | 0.0 | 0.00 | 0.00 | 0.00 | 87 | 1011.4 |
| 20260505111544 | 53 | 0 | 0.0 | 0.0 | 0.00 | 0.00 | 0.00 | 87 | 1011.3 |
| 20260505111032 | 53 | 0 | 0.0 | 0.0 | 0.00 | 0.00 | 0.00 | 86 | 1011.3 |
| 20260505110532 | 53 | 0 | 0.0 | 0.0 | 0.00 | 0.00 | 0.00 | 86 | 1011.4 |
| 20260505102031 | 53 | 0 | 0.0 | 1.7 | 0.00 | 0.00 | 0.00 | 84 | 1011.3 |
| 20260505101553 | 53 | 0 | 0.0 | 1.7 | 0.00 | 0.00 | 0.00 | 83 | 1011.2 |
| 20260505101032 | 53 | 0 | 0.0 | 0.9 | 0.00 | 0.00 | 0.00 | 83 | 1011.2 |
| 20260505100533 | 53 | 0 | 0.0 | 0.9 | 0.00 | 0.00 | 0.00 | 83 | 1011.1 |
| 20260505100041 | 53 | 0 | 0.0 | 0.9 | 0.00 | 0.00 | 0.00 | 83 | 1011.2 |
| 20260505095532 | 53 | 0 | 0.0 | 0.9 | 0.00 | 0.00 | 0.00 | 83 | 1011.5 |
| 20260505095031 | 53 | 0 | 0.0 | 0.9 | 0.00 | 0.00 | 0.00 | 83 | 1011.3 |
| 20260505094546 | 53 | 0 | 0.0 | 0.9 | 0.00 | 0.00 | 0.00 | 83 | 1011.2 |
| 20260505094031 | 53 | 0 | 0.0 | 0.9 | 0.00 | 0.00 | 0.00 | 83 | 1011.3 |
| 20260505093531 | 53 | 0 | 0.0 | 0.9 | 0.00 | 0.00 | 0.00 | 83 | 1011.2 |
| 20260505093047 | 53 | 0 | 0.0 | 0.9 | 0.00 | 0.00 | 0.00 | 83 | 1011.1 |
| 20260505092531 | 53 | 0 | 0.0 | 0.9 | 0.00 | 0.00 | 0.00 | 83 | 1011.0 |
| 20260505092031 | 53 | 229 | 0.0 | 0.9 | 0.00 | 0.00 | 0.00 | 83 | 1010.9 |
| 20260505091547 | 53 | 0 | 0.0 | 0.9 | 0.00 | 0.00 | 0.00 | 83 | 1010.7 |
| 20260505091033 | 53 | 0 | 0.0 | 0.9 | 0.00 | 0.00 | 0.00 | 83 | 1010.7 |
| 20260505090530 | 54 | 0 | 0.0 | 0.9 | 0.00 | 0.00 | 0.00 | 82 | 1010.6 |
| 20260505090057 | 54 | 0 | 0.0 | 0.9 | 0.00 | 0.00 | 0.00 | 82 | 1010.6 |
| 20260505085531 | 54 | 0 | 0.0 | 0.0 | 0.00 | 0.00 | 0.00 | 82 | 1010.6 |
| 20260505085035 | 54 | 0 | 0.0 | 0.0 | 0.00 | 0.00 | 0.00 | 82 | 1010.6 |
| 20260505084551 | 54 | 0 | 0.0 | 0.0 | 0.00 | 0.00 | 0.00 | 82 | 1010.6 |
| 20260505084030 | 54 | 0 | 0.0 | 0.0 | 0.00 | 0.00 | 0.00 | 82 | 1010.5 |
| 20260505083533 | 54 | 0 | 0.0 | 0.0 | 0.00 | 0.00 | 0.00 | 83 | 1010.5 |
| 20260505083055 | 54 | 0 | 0.0 | 0.0 | 0.00 | 0.00 | 0.00 | 83 | 1010.5 |
| 20260505082534 | 54 | 0 | 0.0 | 0.0 | 0.00 | 0.00 | 0.00 | 83 | 1010.6 |
| 20260505082031 | 54 | 0 | 0.0 | 0.9 | 0.00 | 0.00 | 0.00 | 82 | 1010.7 |
| 20260505081550 | 54 | 0 | 0.0 | 0.9 | 0.00 | 0.00 | 0.00 | 82 | 1010.6 |
| 20260505081034 | 54 | 0 | 0.0 | 0.9 | 0.00 | 0.00 | 0.00 | 82 | 1010.7 |
| 20260505080531 | 54 | 0 | 0.0 | 0.9 | 0.00 | 0.00 | 0.00 | 82 | 1010.7 |
| 20260505080049 | 54 | 0 | 0.0 | 0.9 | 0.00 | 0.00 | 0.00 | 82 | 1010.7 |
| 20260505075537 | 54 | 0 | 0.0 | 0.9 | 0.00 | 0.00 | 0.00 | 82 | 1010.7 |
| 20260505075030 | 54 | 246 | 0.0 | 1.7 | 0.00 | 0.00 | 0.00 | 81 | 1010.8 |
| 20260505074545 | 54 | 0 | 0.0 | 1.7 | 0.00 | 0.00 | 0.00 | 80 | 1010.7 |
| 20260505074034 | 54 | 0 | 0.0 | 1.7 | 0.00 | 0.00 | 0.00 | 79 | 1010.6 |
| 20260505073534 | 54 | 0 | 0.0 | 0.0 | 0.00 | 0.00 | 0.00 | 77 | 1010.7 |
| 20260505073044 | 54 | 0 | 0.0 | 0.0 | 0.00 | 0.00 | 0.00 | 76 | 1010.6 |
| 20260505072535 | 54 | 0 | 0.0 | 0.0 | 0.00 | 0.00 | 0.00 | 75 | 1010.6 |
| 20260505072031 | 54 | 0 | 0.0 | 0.0 | 0.00 | 0.00 | 0.00 | 75 | 1010.5 |
| 20260505071546 | 54 | 0 | 0.0 | 0.0 | 0.00 | 0.00 | 0.00 | 75 | 1010.4 |
| 20260505071031 | 54 | 0 | 0.0 | 0.0 | 0.00 | 0.00 | 0.00 | 75 | 1010.4 |
| 20260505070533 | 55 | 0 | 0.0 | 0.0 | 0.00 | 0.00 | 0.00 | 75 | 1010.5 |
| 20260505070045 | 55 | 0 | 0.0 | 0.0 | 0.00 | 0.00 | 0.00 | 76 | 1010.5 |
| 20260505065531 | 55 | 0 | 0.0 | 0.0 | 0.00 | 0.00 | 0.00 | 76 | 1010.4 |
| 20260505065033 | 55 | 0 | 0.0 | 0.0 | 0.00 | 0.00 | 0.00 | 76 | 1010.5 |
| 20260505064543 | 55 | 0 | 0.0 | 0.9 | 0.00 | 0.00 | 0.00 | 75 | 1010.4 |
| 20260505064030 | 55 | 0 | 0.0 | 0.9 | 0.00 | 0.00 | 0.00 | 75 | 1010.5 |
| 20260505063530 | 55 | 0 | 0.0 | 0.9 | 0.00 | 0.00 | 0.00 | 75 | 1010.5 |
| 20260505063043 | 55 | 0 | 0.0 | 0.9 | 0.00 | 0.00 | 0.00 | 74 | 1010.6 |
| 20260505062534 | 55 | 0 | 0.0 | 0.9 | 0.00 | 0.00 | 0.00 | 74 | 1010.5 |
| 20260505062034 | 55 | 0 | 0.0 | 1.7 | 0.00 | 0.00 | 0.00 | 74 | 1010.5 |
| 20260505061548 | 55 | 252 | 0.0 | 1.7 | 0.00 | 0.00 | 0.00 | 73 | 1010.5 |
| 20260505061032 | 55 | 196 | 0.0 | 1.7 | 0.00 | 0.00 | 0.00 | 73 | 1010.5 |
| 20260505060531 | 56 | 0 | 0.0 | 1.7 | 0.00 | 0.00 | 0.00 | 73 | 1010.4 |
| 20260505060052 | 56 | 0 | 0.0 | 1.7 | 0.00 | 0.00 | 0.00 | 72 | 1010.4 |
| 20260505055533 | 56 | 0 | 0.0 | 1.7 | 0.00 | 0.00 | 0.00 | 72 | 1010.4 |
| 20260505055034 | 56 | 0 | 0.0 | 3.5 | 0.00 | 0.00 | 0.00 | 72 | 1010.3 |
| 20260505054550 | 56 | 184 | 0.0 | 3.5 | 0.00 | 0.00 | 0.00 | 72 | 1010.3 |
| 20260505054034 | 56 | 192 | 0.9 | 3.5 | 0.00 | 0.00 | 0.00 | 72 | 1010.4 |
| 20260505053533 | 56 | 182 | 0.9 | 3.5 | 0.00 | 0.00 | 0.00 | 72 | 1010.5 |
| 20260505053049 | 56 | 186 | 0.9 | 2.6 | 0.00 | 0.00 | 0.00 | 72 | 1010.6 |
| 20260505052531 | 56 | 192 | 0.9 | 2.6 | 0.00 | 0.00 | 0.00 | 71 | 1010.5 |
| 20260505052031 | 56 | 167 | 0.0 | 2.6 | 0.00 | 0.00 | 0.00 | 71 | 1010.7 |
| 20260505051545 | 56 | 0 | 0.9 | 2.6 | 0.00 | 0.00 | 0.00 | 71 | 1010.7 |
| 20260505051031 | 56 | 0 | 0.0 | 2.6 | 0.00 | 0.00 | 0.00 | 70 | 1010.7 |
| 20260505050535 | 56 | 194 | 0.0 | 2.6 | 0.00 | 0.00 | 0.00 | 70 | 1010.7 |
| 20260505041546 | 56 | 195 | 0.9 | 3.5 | 0.00 | 0.00 | 0.00 | 67 | 1010.6 |
| 20260505041031 | 56 | 195 | 0.9 | 2.6 | 0.00 | 0.00 | 0.00 | 67 | 1010.7 |
| 20260505040531 | 56 | 0 | 0.0 | 1.7 | 0.00 | 0.00 | 0.00 | 66 | 1010.6 |
| 20260505040045 | 56 | 180 | 0.0 | 1.7 | 0.00 | 0.00 | 0.00 | 66 | 1010.7 |
| 20260505035530 | 56 | 0 | 0.0 | 1.7 | 0.00 | 0.00 | 0.00 | 65 | 1010.6 |
| 20260505035034 | 56 | 0 | 0.0 | 0.9 | 0.00 | 0.00 | 0.00 | 65 | 1010.7 |
| 20260505034543 | 56 | 0 | 0.0 | 0.9 | 0.00 | 0.00 | 0.00 | 64 | 1010.6 |
| 20260505034036 | 56 | 0 | 0.0 | 0.9 | 0.00 | 0.00 | 0.00 | 64 | 1010.6 |
| 20260505033531 | 56 | 0 | 0.0 | 0.9 | 0.00 | 0.00 | 0.00 | 63 | 1010.7 |
| 20260505033108 | 56 | 0 | 0.0 | 0.0 | 0.00 | 0.00 | 0.00 | 63 | 1010.7 |
| 20260505032530 | 56 | 0 | 0.0 | 0.0 | 0.00 | 0.00 | 0.00 | 62 | 1010.7 |
| 20260505032031 | 57 | 0 | 0.0 | 0.0 | 0.00 | 0.00 | 0.00 | 62 | 1010.8 |
| 20260505031545 | 57 | 0 | 0.0 | 0.0 | 0.00 | 0.00 | 0.00 | 62 | 1010.7 |
| 20260505031035 | 57 | 0 | 0.0 | 0.9 | 0.00 | 0.00 | 0.00 | 61 | 1010.8 |
| 20260505030536 | 57 | 0 | 0.0 | 0.9 | 0.00 | 0.00 | 0.00 | 61 | 1010.8 |
| 20260505030046 | 57 | 0 | 0.0 | 0.9 | 0.00 | 0.00 | 0.00 | 61 | 1010.9 |
| 20260505025531 | 57 | 0 | 0.0 | 0.9 | 0.00 | 0.00 | 0.00 | 61 | 1010.9 |
| 20260505025034 | 57 | 0 | 0.0 | 0.0 | 0.00 | 0.00 | 0.00 | 60 | 1010.9 |
| 20260505024543 | 57 | 0 | 0.0 | 0.9 | 0.00 | 0.00 | 0.00 | 60 | 1011.0 |
| 20260505024034 | 57 | 0 | 0.0 | 0.9 | 0.00 | 0.00 | 0.00 | 60 | 1011.0 |
| 20260505023534 | 57 | 0 | 0.0 | 0.9 | 0.00 | 0.00 | 0.00 | 60 | 1011.0 |
| 20260505023057 | 58 | 0 | 0.0 | 0.9 | 0.00 | 0.00 | 0.00 | 60 | 1011.1 |
| 20260505022535 | 58 | 0 | 0.0 | 0.9 | 0.00 | 0.00 | 0.00 | 60 | 1011.0 |
| 20260505022109 | 58 | 0 | 0.0 | 0.9 | 0.00 | 0.00 | 0.00 | 60 | 1011.0 |
| 20260505021545 | 58 | 0 | 0.0 | 0.9 | 0.00 | 0.00 | 0.00 | 59 | 1011.0 |
| 20260505021034 | 58 | 0 | 0.0 | 0.9 | 0.00 | 0.00 | 0.00 | 59 | 1010.9 |
| 20260505020534 | 58 | 0 | 0.0 | 0.9 | 0.00 | 0.00 | 0.00 | 59 | 1011.0 |
| 20260505020051 | 58 | 0 | 0.0 | 0.0 | 0.00 | 0.00 | 0.00 | 58 | 1011.0 |
| 20260505015531 | 58 | 0 | 0.0 | 1.7 | 0.00 | 0.00 | 0.00 | 58 | 1011.1 |
| 20260505015033 | 58 | 0 | 0.0 | 1.7 | 0.00 | 0.00 | 0.00 | 58 | 1011.0 |
| 20260505014546 | 58 | 0 | 0.0 | 0.9 | 0.00 | 0.00 | 0.00 | 58 | 1010.9 |
| 20260505014033 | 58 | 0 | 0.0 | 0.9 | 0.00 | 0.00 | 0.00 | 57 | 1010.9 |
| 20260505013531 | 58 | 0 | 0.0 | 0.9 | 0.00 | 0.00 | 0.00 | 57 | 1010.9 |
| 20260505013045 | 59 | 0 | 0.0 | 0.9 | 0.00 | 0.00 | 0.00 | 57 | 1010.8 |
| 20260505012535 | 59 | 0 | 0.0 | 0.9 | 0.00 | 0.00 | 0.00 | 57 | 1010.7 |
| 20260505012035 | 59 | 0 | 0.0 | 0.0 | 0.00 | 0.00 | 0.00 | 56 | 1010.7 |
| 20260505011552 | 59 | 0 | 0.0 | 0.9 | 0.00 | 0.00 | 0.00 | 56 | 1010.7 |
| 20260505011034 | 59 | 0 | 0.0 | 0.9 | 0.00 | 0.00 | 0.00 | 56 | 1010.7 |
| 20260505010534 | 59 | 0 | 0.0 | 0.9 | 0.00 | 0.00 | 0.00 | 55 | 1010.6 |
| 20260505010046 | 60 | 0 | 0.0 | 0.9 | 0.00 | 0.00 | 0.00 | 55 | 1010.5 |
| 20260505005534 | 60 | 0 | 0.0 | 0.9 | 0.00 | 0.00 | 0.00 | 56 | 1010.4 |
| 20260505005035 | 59 | 0 | 0.0 | 0.9 | 0.00 | 0.00 | 0.00 | 56 | 1010.3 |
| 20260505004548 | 59 | 0 | 0.0 | 0.0 | 0.00 | 0.00 | 0.00 | 56 | 1010.3 |
| 20260505004034 | 60 | 0 | 0.0 | 0.0 | 0.00 | 0.00 | 0.00 | 56 | 1010.3 |
| 20260505003534 | 60 | 0 | 0.0 | 0.0 | 0.00 | 0.00 | 0.00 | 55 | 1010.2 |
| 20260505003049 | 60 | 0 | 0.0 | 0.0 | 0.00 | 0.00 | 0.00 | 53 | 1010.2 |
| 20260505002534 | 61 | 0 | 0.0 | 0.0 | 0.00 | 0.00 | 0.00 | 53 | 1010.2 |
| 20260505002031 | 61 | 0 | 0.0 | 0.0 | 0.00 | 0.00 | 0.00 | 53 | 1010.1 |
| 20260505001546 | 62 | 0 | 0.0 | 0.0 | 0.00 | 0.00 | 0.00 | 51 | 1010.1 |
| 20260505001034 | 63 | 0 | 0.0 | 0.0 | 0.00 | 0.00 | 0.00 | 50 | 1010.1 |
| 20260505000531 | 63 | 0 | 0.0 | 0.9 | 0.00 | 0.00 | 0.00 | 48 | 1010.1 |
| 20260505000048 | 64 | 0 | 0.0 | 2.6 | 0.00 | 0.00 | 0.00 | 46 | 1010.0 |
| 20260504235534 | 65 | 0 | 0.0 | 2.6 | 0.00 | 0.00 | 0.00 | 46 | 1010.0 |
| 20260504235034 | 66 | 169 | 0.9 | 2.6 | 0.00 | 0.00 | 0.00 | 44 | 1009.9 |
| 20260504234613 | 66 | 196 | 0.9 | 3.5 | 0.00 | 0.00 | 0.00 | 44 | 1009.8 |
| 20260504234034 | 66 | 187 | 0.9 | 4.3 | 0.00 | 0.00 | 0.00 | 44 | 1009.8 |
| 20260504233534 | 66 | 169 | 0.9 | 4.3 | 0.00 | 0.00 | 0.00 | 43 | 1009.7 |
| 20260504233048 | 66 | 157 | 1.7 | 3.5 | 0.00 | 0.00 | 0.00 | 43 | 1009.6 |
| 20260504232535 | 67 | 216 | 0.9 | 3.5 | 0.00 | 0.00 | 0.00 | 43 | 1009.7 |
| 20260504232034 | 67 | 198 | 0.9 | 3.5 | 0.00 | 0.00 | 0.00 | 43 | 1009.6 |
| 20260504231554 | 67 | 186 | 0.9 | 3.5 | 0.00 | 0.00 | 0.00 | 43 | 1009.6 |
| 20260504231034 | 67 | 218 | 0.9 | 4.3 | 0.00 | 0.00 | 0.00 | 42 | 1009.5 |
| 20260504230531 | 68 | 192 | 0.9 | 4.3 | 0.00 | 0.00 | 0.00 | 42 | 1009.5 |
| 20260504230049 | 68 | 182 | 1.7 | 5.2 | 0.00 | 0.00 | 0.00 | 41 | 1009.5 |
| 20260504225535 | 68 | 183 | 1.7 | 6.1 | 0.00 | 0.00 | 0.00 | 41 | 1009.6 |
| 20260504225034 | 69 | 165 | 2.6 | 6.1 | 0.00 | 0.00 | 0.00 | 41 | 1009.5 |
| 20260504224544 | 69 | 178 | 2.6 | 6.1 | 0.00 | 0.00 | 0.00 | 40 | 1009.5 |
| 20260504224034 | 69 | 221 | 2.6 | 6.1 | 0.00 | 0.00 | 0.00 | 40 | 1009.5 |
| 20260504223534 | 69 | 215 | 0.9 | 4.3 | 0.00 | 0.00 | 0.00 | 40 | 1009.5 |
| 20260504223042 | 69 | 160 | 1.7 | 6.1 | 0.00 | 0.00 | 0.00 | 40 | 1009.5 |
| 20260504222530 | 70 | 160 | 1.7 | 6.1 | 0.00 | 0.00 | 0.00 | 39 | 1009.5 |
| 20260504222035 | 70 | 199 | 2.6 | 5.2 | 0.00 | 0.00 | 0.00 | 39 | 1009.5 |
| 20260504221552 | 70 | 195 | 2.6 | 5.2 | 0.00 | 0.00 | 0.00 | 38 | 1009.5 |
| 20260504221036 | 70 | 192 | 1.7 | 5.2 | 0.00 | 0.00 | 0.00 | 40 | 1009.5 |
| 20260504220534 | 70 | 171 | 2.6 | 5.2 | 0.00 | 0.00 | 0.00 | 39 | 1009.5 |
| 20260504220050 | 70 | 161 | 1.7 | 5.2 | 0.00 | 0.00 | 0.00 | 39 | 1009.4 |
| 20260504215532 | 70 | 167 | 0.9 | 5.2 | 0.00 | 0.00 | 0.00 | 38 | 1009.7 |
| 20260504215031 | 71 | 178 | 1.7 | 5.2 | 0.00 | 0.00 | 0.00 | 38 | 1009.7 |
| 20260504214549 | 71 | 192 | 0.0 | 5.2 | 0.00 | 0.00 | 0.00 | 39 | 1009.8 |
| 20260504214034 | 71 | 176 | 1.7 | 5.2 | 0.00 | 0.00 | 0.00 | 39 | 1009.7 |
| 20260504213534 | 71 | 208 | 1.7 | 5.2 | 0.00 | 0.00 | 0.00 | 37 | 1009.7 |
| 20260504213051 | 71 | 178 | 2.6 | 5.2 | 0.00 | 0.00 | 0.00 | 41 | 1009.8 |
| 20260504212535 | 71 | 355 | 0.9 | 5.2 | 0.00 | 0.00 | 0.00 | 41 | 1009.8 |
| 20260504212034 | 71 | 196 | 2.6 | 5.2 | 0.00 | 0.00 | 0.00 | 38 | 1009.7 |
| 20260504211546 | 71 | 164 | 1.7 | 6.1 | 0.00 | 0.00 | 0.00 | 39 | 1009.7 |
| 20260504211031 | 71 | 138 | 0.9 | 7.8 | 0.00 | 0.00 | 0.00 | 38 | 1009.7 |
| 20260504210534 | 71 | 195 | 2.6 | 7.8 | 0.00 | 0.00 | 0.00 | 36 | 1009.8 |
| 20260504210053 | 71 | 200 | 1.7 | 7.8 | 0.00 | 0.00 | 0.00 | 39 | 1010.0 |
| 20260504205535 | 71 | 171 | 2.6 | 7.8 | 0.00 | 0.00 | 0.00 | 37 | 1010.0 |
| 20260504205035 | 71 | 173 | 3.5 | 7.8 | 0.00 | 0.00 | 0.00 | 37 | 1009.9 |
| 20260504204622 | 71 | 184 | 0.9 | 7.8 | 0.00 | 0.00 | 0.00 | 39 | 1010.0 |
| 20260504204034 | 71 | 179 | 2.6 | 7.8 | 0.00 | 0.00 | 0.00 | 38 | 1010.0 |
| 20260504203535 | 71 | 232 | 2.6 | 5.2 | 0.00 | 0.00 | 0.00 | 38 | 1010.0 |
| 20260504203044 | 71 | 86 | 1.7 | 5.2 | 0.00 | 0.00 | 0.00 | 40 | 1009.9 |
| 20260504202534 | 71 | 174 | 0.9 | 6.1 | 0.00 | 0.00 | 0.00 | 38 | 1010.0 |
| 20260504202035 | 71 | 194 | 2.6 | 6.1 | 0.00 | 0.00 | 0.00 | 38 | 1010.0 |
| 20260504201542 | 71 | 209 | 1.7 | 6.1 | 0.00 | 0.00 | 0.00 | 36 | 1009.9 |
| 20260504201031 | 71 | 223 | 1.7 | 6.1 | 0.00 | 0.00 | 0.00 | 38 | 1010.1 |
| 20260504200535 | 71 | 165 | 1.7 | 7.0 | 0.00 | 0.00 | 0.00 | 36 | 1010.1 |
| 20260504200053 | 71 | 176 | 3.5 | 7.0 | 0.00 | 0.00 | 0.00 | 37 | 1010.1 |
| 20260504195615 | 72 | 188 | 2.6 | 5.2 | 0.00 | 0.00 | 0.00 | 38 | 1010.2 |
| 20260504195036 | 71 | 194 | 2.6 | 5.2 | 0.00 | 0.00 | 0.00 | 37 | 1010.1 |
| 20260504194550 | 71 | 178 | 1.7 | 7.0 | 0.00 | 0.00 | 0.00 | 39 | 1010.1 |
| 20260504194031 | 71 | 149 | 1.7 | 7.0 | 0.00 | 0.00 | 0.00 | 39 | 1010.1 |
| 20260504193530 | 72 | 165 | 1.7 | 7.8 | 0.00 | 0.00 | 0.00 | 39 | 1010.2 |
| 20260504193047 | 71 | 185 | 2.6 | 7.8 | 0.00 | 0.00 | 0.00 | 37 | 1010.2 |
| 20260504192534 | 71 | 200 | 3.5 | 6.1 | 0.00 | 0.00 | 0.00 | 37 | 1010.2 |
| 20260504192034 | 72 | 179 | 0.9 | 6.1 | 0.00 | 0.00 | 0.00 | 41 | 1010.3 |
| 20260504191546 | 71 | 166 | 1.7 | 7.0 | 0.00 | 0.00 | 0.00 | 40 | 1010.3 |
| 20260504191034 | 71 | 155 | 2.6 | 7.0 | 0.00 | 0.00 | 0.00 | 37 | 1010.4 |
| 20260504190534 | 71 | 148 | 2.6 | 7.0 | 0.00 | 0.00 | 0.00 | 36 | 1010.3 |
| 20260504190058 | 71 | 199 | 3.5 | 7.8 | 0.00 | 0.00 | 0.00 | 37 | 1010.5 |
| 20260504185534 | 71 | 192 | 1.7 | 7.8 | 0.00 | 0.00 | 0.00 | 37 | 1010.7 |
| 20260504185031 | 71 | 153 | 1.7 | 6.1 | 0.00 | 0.00 | 0.00 | 39 | 1010.7 |
| 20260504184559 | 71 | 175 | 1.7 | 7.0 | 0.00 | 0.00 | 0.00 | 39 | 1010.9 |
| 20260504184031 | 71 | 174 | 3.5 | 7.0 | 0.00 | 0.00 | 0.00 | 38 | 1010.9 |
| 20260504183533 | 72 | 125 | 0.9 | 5.2 | 0.00 | 0.00 | 0.00 | 38 | 1010.9 |
| 20260504183057 | 72 | 202 | 0.9 | 6.1 | 0.00 | 0.00 | 0.00 | 45 | 1011.1 |
| 20260504182537 | 71 | 191 | 1.7 | 6.1 | 0.00 | 0.00 | 0.00 | 38 | 1011.1 |
| 20260504182034 | 71 | 238 | 1.7 | 6.1 | 0.00 | 0.00 | 0.00 | 42 | 1011.1 |
| 20260504181549 | 71 | 182 | 1.7 | 5.2 | 0.00 | 0.00 | 0.00 | 37 | 1011.1 |
| 20260504181035 | 70 | 293 | 1.7 | 6.1 | 0.00 | 0.00 | 0.00 | 36 | 1011.2 |
| 20260504180535 | 70 | 214 | 2.6 | 6.1 | 0.00 | 0.00 | 0.00 | 36 | 1011.2 |
| 20260504180050 | 71 | 205 | 2.6 | 7.8 | 0.00 | 0.00 | 0.00 | 37 | 1011.5 |
| 20260504175535 | 70 | 144 | 1.7 | 7.8 | 0.00 | 0.00 | 0.00 | 41 | 1011.5 |
| 20260504175033 | 70 | 192 | 1.7 | 6.1 | 0.00 | 0.00 | 0.00 | 46 | 1011.6 |
| 20260504174551 | 70 | 198 | 3.5 | 6.1 | 0.00 | 0.00 | 0.00 | 38 | 1011.6 |
| 20260504174031 | 70 | 250 | 1.7 | 7.0 | 0.00 | 0.00 | 0.00 | 42 | 1011.7 |
| 20260504173533 | 70 | 170 | 1.7 | 7.0 | 0.00 | 0.00 | 0.00 | 38 | 1011.6 |
| 20260504173045 | 70 | 173 | 1.7 | 5.2 | 0.00 | 0.00 | 0.00 | 39 | 1011.7 |
| 20260504172530 | 70 | 274 | 2.6 | 6.1 | 0.00 | 0.00 | 0.00 | 42 | 1011.7 |
| 20260504172031 | 69 | 33 | 0.9 | 7.0 | 0.00 | 0.00 | 0.00 | 43 | 1011.8 |
| 20260504171548 | 69 | 171 | 2.6 | 8.7 | 0.00 | 0.00 | 0.00 | 41 | 1011.8 |
| 20260504171031 | 69 | 194 | 1.7 | 8.7 | 0.00 | 0.00 | 0.00 | 42 | 1011.8 |